Find Molniya-1

NORAD ID: 15214 Int'l Des: 1984-089 Owner: NPOE Country: SU unknown
MEOELLIPTICALHEO_ELLIPTICALMOLNIYA_TYPE

Live-Position

3D-Globus wird geladen...

Über Molniya-1

Beschreibung wird geladen...

Nächste Überflüge

Passes for default location (London). Set your location on the main map for personalized predictions.

Höhenverlauf

Loading altitude history...

Zweizeiliger Elementsatz

1 15214U 84089A 26102.72204691 .00000198 00000-0 00000+0 0 9991
2 15214 62.9671 132.1753 6951523 278.8008 14.4061 2.29642330 10932
Epoch: 12. Apr. 2026 • Age: 122 hours

Aktueller Status

Höhe 29052.4 km
Geschwindigkeit 2.47 km/s
Subsatellitenpunkt 50.16°N, 137.12°E
Startdatum 24. Aug. 1984
Alter 41.6 years
Typ other

Technische Details

Klassifizierung Payload
Masse 1650.00 kg
Trockenmasse 1620.00 kg
Gesamtmasse 1650.00 kg
Länge 4.40 m
Durchmesser 1.40 m
Spannweite 8.60 m
Form Cyl + 6 Pan
Hersteller NPOPM
Bus-Typ Molniya-1
Phasenstatus In Orbit
Besitzer/Staat NPOE/SU

Most Searched